Content
SEND FEEDBACK

Daily
Averages
Monthly
Summary
Canada

MONTREAL, QUEBEC


Home > North America > Canada > Quebec
Elevation: 118 feet     Latitude: 45 28N     Longitude: 073 45W

WEATHER
 
SELECT A DAY
Number of Records: 198,022;   Date Range: 1/1/95 - 7/20/14
 
SHARE

PRINT THIS DATA

[ ← Previous Day ]
WEATHER ALMANAC - JANUARY 18, 2013
[ Next Day → ]
[ °C ]   °F
Weather ElementAverageHighLow
Temperature4.8 °F17.6 °F (11:00 pm)-6 °F (7:00 am)
Dewpoint-10.5 °F6.8 °F (11:00 pm)-19 °F (1:00 am)
Humidity47.3 %63 % (11:00 pm)26 % (1:00 am)
Barometer29.23 in30.38 in (10:00 am) (7:00 pm)
Wind Speed8.7 mph18.4 mph (1:00 pm)
Wind Gust24.2 mph (12:00 pm)
Weather ElementAverage
Visibility20.3 mi
Wind DirectionWSW (235.4 °)

Weather ElementTotal
Precipitation---
Heating Degree Days59.2 (Base 65)
Averaged from 28 records on January 18, 2013
WEATHER CONDITIONS BREAKOUT
WIND DIRECTION BREAKOUT
WEATHER BY HOUR - JANUARY 18, 2013
[ °C ]   °F
Local TimeTemperatureDewpointHumidityBarometerVisibilityWind DirectionWind SpeedGust SpeedPrecipitationEventsConditions
1:00 AM-1.0 °F-19.0 °F26 %30.25 in15.0 miWNW (290°)2.3 mph
1:00 AM-2.2 °F-18.4 °F46 %30.25 in15.0 miWNW (300°)2.3 mphClear
2:00 AM-2.2 °F-16.6 °F50 %30.25 in15.0 miNW (310°)4.6 mphClear
3:00 AM-4.0 °F-16.6 °F55 %30.26 in15.0 miNW (320°)5.8 mphClear
4:00 AM-4.0 °F-16.6 °F55 %30.28 in15.0 miNNW (340°)8.1 mphClear
5:00 AM-5.8 °F-18.4 °F55 %30.29 in15.0 miNorth (350°)4.6 mphClear
6:00 AM-5.8 °F-16.6 °F60 %30.32 in15.0 miNorth (360°)3.5 mphClear
7:00 AM-5.8 °F-16.6 °F60 %30.33 in15.0 miWSW (240°)2.3 mphPartly Cloudy
7:00 AM-6.0 °F-16.0 °F46 %30.33 in15.0 miWSW (240°)2.3 mphScattered Clouds
8:00 AM-2.2 °F-16.6 °F50 %30.35 in30.0 miSW (230°)4.6 mphPartly Cloudy
9:00 AM-0.4 °F-16.6 °F46 %30.37 in15.0 miWest (270°)10.4 mphPartly Cloudy
10:00 AM3.2 °F-16.6 °F39 %30.38 in30.0 miWest (260°)12.7 mphPartly Cloudy
11:00 AM5.0 °F-13.0 °F43 %30.37 in30.0 miWest (270°)16.1 mphPartly Cloudy
12:00 PM6.8 °F-11.2 °F44 %30.36 in30.0 miWest (270°)17.3 mph24.2 mphPartly Cloudy
1:00 PM6.8 °F-11.2 °F44 %30.36 in30.0 miWest (260°)17.3 mph24.2 mphPartly Cloudy
1:00 PM8.0 °F-11.0 °F26 %30.36 in28.0 miWest (260°)18.4 mphScattered Clouds
2:00 PM8.6 °F-9.4 °F44 %30.36 in30.0 miWSW (250°)15.0 mph23.0 mphPartly Cloudy
3:00 PM10.4 °F-9.4 °F41 %30.34 in30.0 miWSW (250°)15.0 mphPartly Cloudy
4:00 PM10.4 °F-9.4 °F41 %30.35 in30.0 miWSW (250°)12.7 mph19.6 mphScattered Clouds
5:00 PM10.4 °F-7.6 °F44 %30.33 in30.0 miSW (230°)9.2 mphScattered Clouds
6:00 PM10.4 °F-7.6 °F44 %30.31 in15.0 miSW (220°)3.5 mphMostly Cloudy
7:00 PM10.4 °F-5.8 °F48 %30.31 in15.0 miENE (70°)2.3 mphMostly Cloudy
7:00 PM11.0 °F-6.0 °F30 %30.31 in15.0 miNE (50°)1.2 mphScattered Clouds
8:00 PM12.2 °F-0.4 °F57 %30.29 in15.0 miESE (120°)4.6 mphMostly Cloudy
8:48 PM14.0 °F0.0 °F15.0 miSE (140°)11.5 mphSnowLight Snow
9:00 PM14.0 °F1.4 °F57 %30.27 in15.0 miSE (140°)10.4 mphSnowLight Snow
10:00 PM15.8 °F5.0 °F62 %30.24 in15.0 miSSE (150°)12.7 mphSnowLight Snow
11:00 PM17.6 °F6.8 °F63 %30.19 in15.0 miSSE (150°)11.5 mphSnowLight Snow
Hourly data recorded from CYUL, located miles away from Montreal, Quebec







STORIES FROM OUR PARTNERS